Starlink 5276

operational
NORAD ID: 55399 Int'l Des: 2023-014 Owner: SPXS Country: US Constellation: starlink
LEOCIRCULAR

关于 Starlink 5276

正在加载描述...

实时位置

正在加载3D地球...

即将过境

高度历史

Altitude vs Time

uPlot chart will show altitude changes over time

两行轨道根数

1 55399U 23014J 25347.27590406 .00005282 00000-0 45015-3 0 9990
2 55399 70.0002 282.2463 0002552 265.1596 94.9272 14.98327132159117
Epoch: Dec 13, 2025 • Age: 29 hours

当前状态

高度 579.0 km
速度 7.57 km/s
星下点 43.14°N, 175.08°E
发射日期 Jan 31, 2023
运行时间 2.8 years
类型 internet

技术详情

分类 Payload
质量 305.00 kg
干质量 290.00 kg
总质量 305.00 kg
长度 0.20 m
直径 2.80 m
跨度 9.00 m
形状 Box + pan
制造商 SPXS
平台类型 Starlink
阶段状态 In Orbit
所有者/国家 SPXS/US

大型星座

Loading constellations...